Probability
0 0 0 0 0 0 0 0 0 0 0 0 0 0 0 0 0 0 0 0 0 0 0 0 0 0 0 0 0 0 0 0 0 0 0 0 0 0
0 0 0 0 0 0 0 0 0 0 0 0 0 0 0 0 0 0 0 0 0 0 0 0 0 0 0 0 0 0 0 0 0 0 0 0 0 0
0 0 0 0 0 0 0 0 0 0 0 0 0 0 0 0 0 0 0 0 0 0 0 0 0 0 0 0 0 0 0 0 0 0 0 0 0 0
0 0 0 0 0 0 0 0 0 0 0 0 0 0 0 0 0 0 0 0 0 0 0 0 0 0 0 0 0 0 0 0 0 0 0 0 0 0
0 0 0 0 0 0 0 0 0 0 0 0 0 0 0 0 0 0 0 0 0 0 0 0 0 0 0 0 0 0 0 0 0 0 0 0 0 0
0 0 0 0 0 0 0 0 0 0 0 0 0 0 0 0 0 0 0 0 0 0 0 0 0 0 0 0 0 0 0 0 0 0 0 0 0 0
0 0 0 0 0 0 0 0 0 0 0 0 0 0 0 0 0 0 0 0 0 0 0 0 0 0 0 0 0 0 0 0 0 0 0 0 0 0
0 0 0 0 0 0 0 0 0 0 0 0 0 0 0 0 0 0 0 0 0 0 0 0 0 0 0 0 0 0 0 0 0 0 0 0 0 0
0 0 0 0 0 0 0 0 0 0 0 0 0 0 0 0 0 0 0 0 0 0 0 0 0 0 0 0 0 0 0 0 0 0 0 0 0 0
0 0 0 0 0 0 0 0 0 0 0 0 0 0 0 0 0 0 0 0 0 0 0 0 0 0 0 0 0 0 0 0 0 0 0 0 0 0
0 0 0 0 0 0 0 0 0 0 0 0 0 0 0 0 0 0 0 0 0 0 0 0 0 0 0 0 0 0 0 0 0 0 0 0 0 0
0 0 0 0 0 0 0 0 0 0 0 0 0 0 0 0 0 0 0 0 0 0 0 0 0 0 0 0 0 0 0 0 0 0 0 0 0 0
0 0 0 0 0 0 0 0 0 0 0 0 0 0 0 0 0 0 0 0 0 0 0 0 0 0 0 0 0 0 0 0 0 0 0 0 0 0
0 0 0 0 0 0 0 0 0 0 0 0 0 0 0 0 0 0 0 0 0 0 0 0 0 0 0 0 0 0 0 0 0 0 0 0 0 0
0 0 0 0 0 0 0 0 0 0 0 0 0 0 0 0 0 0 0 0 0 0 0 0 0 0 0 0 0 0 0 0 0 0 0 0 0 0
0 0 0 0 0 0 0 0 0 0 0 0 0 0 0 0 0 0 0 0 0 0 0 0 0 0 0 0 0 0 0 0 0 0 0 0 0 0
0 0 0 0 0 0 0 0 0 0 0 0 0 0 0 0 0 0 0 0 0 0 0 0 0 0 0 0 0 0 0 0 0 0 0 0 0 0
0 0 0 0 0 0 0 0 0 0 0 0 0 0 0 0 0 0 0 0 0 0 0 0 0 0 0 0 0 0 0 0 0 0 0 0 0 0
0 0 0 0 0 0 0 0 0 0 0 0 0 0 0 0 0 0 0 0 0 0 0 0 0 0 0 0 0 0 0 0 0 0 0 0 0 0
0 0 0 0 0 0 0 0 0 0 0 0 0 0 0 0 0 0 0 0 0 0 0 0 0 0 0 0 0 0 0 0 0 0 0 0 0 0
0 0 0 0 0 0 0 0 0 0 0 0 0 0 0 0 0 0 0 0 0 0 0 0 0 0 0 0 0 0 0 0 0 0 0 0 0 0
0 0 0 0 0 0 0 0 0 0 0 0 0 0 0 0 0 0 0 0 0 0 0 0 0 0 0 0 0 0 0 0 0 0 0 0 0 0
0 0 0 0 0 0 0 0 0 0 0 0 0 0 0 0 0 0 0 0 0 0 0 0 0 0 0 0 0 0 0 0 0 0 0 0 0 0
Wind_Speed
8 8 5 4 4 3 3 4 6 5 4 4 3 3 3 3 2 1 1 4 6 7 9 10 11 12 13 14 15 16 18 19 20 21 22 23 24 26
6 8 6 4 4 3 3 3 3 5 4 3 3 3 3 2 2 1 1 4 4 6 7 9 10 11 12 13 14 15 17 18 19 20 22 23 24 26
7 9 8 6 5 4 4 4 3 4 4 2 2 3 3 2 1 1 1 1 2 5 7 8 9 10 11 12 13 14 16 17 19 20 21 23 24 25
10 10 9 7 7 5 5 5 4 3 4 4 2 2 2 2 1 1 1 1 2 5 7 8 9 10 10 11 12 13 15 16 18 19 20 22 24 25
12 12 11 11 9 6 6 5 4 4 3 4 3 2 1 1 1 1 1 2 3 4 6 7 8 10 10 11 11 12 14 15 17 19 20 21 23 24
10 10 11 12 11 10 8 7 6 5 4 4 3 2 2 1 1 1 1 1 2 3 3 5 7 9 10 10 10 11 13 15 16 18 19 20 22 23
8 8 9 10 12 10 8 9 9 6 5 4 3 2 2 2 2 1 1 2 3 1 1 3 3 3 4 7 8 10 12 14 16 18 19 20 21 23
11 9 8 9 12 13 12 12 12 9 8 5 4 4 4 3 2 2 1 1 2 1 2 4 3 3 3 2 8 11 12 14 16 17 19 20 21 22
12 11 8 7 9 9 11 12 9 10 10 6 6 5 4 4 4 2 2 2 3 2 2 4 2 3 3 5 10 9 11 13 15 17 18 20 21 21
9 11 12 12 11 11 10 8 6 5 6 4 4 4 4 4 4 3 2 2 3 3 1 3 2 3 3 4 8 7 10 13 15 17 18 20 21 21
7 8 10 11 16 17 11 10 7 4 6 7 6 6 6 6 5 3 2 1 2 2 1 1 2 3 3 3 4 7 9 12 14 16 18 19 20 19
7 7 9 13 18 18 11 10 10 7 6 6 5 5 4 4 6 4 4 3 2 3 1 1 1 2 4 3 2 2 4 8 13 14 17 19 20 10
8 7 8 16 18 18 12 8 9 9 7 6 4 4 3 3 3 3 3 4 4 4 2 1 1 1 2 4 4 2 2 3 4 6 11 17 19 14
7 6 8 17 17 16 11 10 12 9 5 5 4 5 5 5 4 4 4 3 3 4 2 2 2 2 1 3 5 4 2 3 3 3 4 12 13 16
5 10 12 16 15 11 12 13 9 6 6 5 6 6 4 4 4 3 2 2 3 3 3 4 4 3 3 4 4 3 4 3 2 3 4 6 6 7
6 8 13 14 10 8 8 8 6 6 6 6 5 4 3 4 3 3 3 2 2 3 4 5 5 4 4 5 5 5 4 4 4 4 4 5 5 5
8 5 6 7 7 6 5 5 5 5 6 5 4 4 4 4 4 3 3 3 4 3 3 2 3 3 5 5 4 6 5 4 4 4 4 5 5 5
9 7 8 8 8 8 8 7 7 7 7 6 5 6 6 6 5 4 4 4 5 4 3 3 1 0 2 4 9 6 4 3 3 3 3 4 5 5
7 7 7 8 8 8 8 8 8 7 6 7 7 7 6 6 5 5 5 5 5 5 4 3 3 3 2 4 5 5 3 2 2 3 3 3 5 7
6 6 7 7 7 8 8 7 7 6 7 7 7 7 7 6 6 6 6 6 6 5 4 4 5 6 6 4 3 4 5 3 2 3 3 3 5 9
7 6 6 6 6 7 7 7 7 7 7 7 7 8 7 7 7 7 6 7 6 5 6 6 5 5 3 2 2 4 4 6 5 3 3 3 4 3
7 7 6 6 6 6 6 6 7 7 8 8 7 7 7 7 8 8 7 7 7 6 6 3 3 3 3 5 5 4 4 3 6 10 9 7 3 3
6 6 5 6 6 5 6 7 8 7 7 7 7 7 7 7 6 6 7 6 6 5 5 4 3 3 4 5 5 4 5 5 3 4 4 8 10 12
Wind_Direction
184 177 171 168 159 155 146 151 155 170 193 170 155 151 136 124 85 52 25 4 2 9 6 3 1 0 360 358 357 356 355 354 353 353 351 349 348 346
171 166 163 157 149 147 146 142 142 151 166 160 144 145 134 130 103 68 358 354 354 354 354 354 355 354 355 354 354 354 353 353 353 352 350 348 347 346
166 166 165 156 155 155 146 142 136 131 143 132 106 124 127 133 104 19 343 339 327 331 338 343 347 348 349 350 350 351 352 352 351 350 348 348 345 344
172 167 165 160 157 155 153 149 144 133 137 148 130 127 141 154 131 309 308 315 306 314 326 336 339 342 344 346 348 350 350 349 349 348 347 346 344 343
173 172 169 163 163 160 156 151 143 128 116 135 142 134 144 148 115 299 299 304 303 308 315 330 335 336 336 340 344 346 346 346 347 348 347 345 343 343
171 170 169 170 168 163 159 154 143 133 125 132 140 153 161 154 136 215 294 298 297 301 313 324 327 325 325 333 337 339 343 345 347 347 345 343 343 342
162 164 164 163 160 160 161 161 153 148 147 151 159 157 168 164 180 177 248 300 292 276 330 309 310 303 309 322 327 333 342 344 346 346 345 343 342 342
162 157 151 153 154 154 156 161 160 159 164 165 173 181 183 174 158 164 210 309 294 326 350 297 284 283 287 288 317 332 340 343 344 345 345 343 342 342
164 159 155 153 150 147 151 154 161 170 172 166 172 180 171 169 159 176 208 225 248 279 331 284 275 277 286 308 317 326 338 342 343 343 343 342 342 343
164 164 160 159 161 154 150 150 151 159 165 161 159 157 149 149 160 173 189 241 273 258 208 263 287 281 294 298 305 322 338 340 340 342 342 342 341 343
153 157 161 162 166 161 156 156 156 162 169 159 154 156 161 166 163 144 158 197 268 258 159 241 288 303 299 290 303 326 333 335 338 340 341 341 340 344
153 157 169 168 169 168 165 163 168 170 160 158 161 168 167 178 188 179 175 191 222 250 194 196 280 335 315 299 306 315 321 330 335 337 340 340 341 342
166 169 176 176 175 175 171 171 173 157 159 162 163 169 174 179 182 182 184 193 207 228 189 148 228 258 263 295 300 288 299 321 325 330 338 338 340 342
171 168 174 177 178 176 173 172 165 153 154 165 177 193 196 195 189 186 190 204 220 229 204 169 204 206 239 278 284 297 307 305 307 322 328 332 335 337
157 166 170 176 175 176 177 171 162 161 168 184 200 206 197 182 166 169 183 203 242 241 219 203 206 214 214 239 270 289 309 303 303 324 325 327 325 326
148 159 169 173 170 163 170 175 175 180 187 198 200 186 161 165 180 179 185 186 227 254 222 207 206 208 229 239 250 270 274 285 309 317 317 314 315 316
145 145 160 166 173 175 178 182 183 187 197 199 191 186 186 190 194 182 182 183 205 219 221 218 214 222 229 233 253 256 261 268 279 303 316 312 307 310
158 174 182 184 187 188 191 194 196 202 202 197 197 199 200 200 198 190 192 201 216 223 216 197 176 324 319 273 229 241 251 258 278 298 302 302 301 305
185 189 192 193 195 196 198 200 204 201 195 199 204 204 202 200 198 201 203 210 220 222 216 191 177 173 212 267 282 227 219 256 285 289 280 274 286 299
201 201 201 199 200 202 202 204 203 194 196 203 205 204 202 199 202 206 207 209 214 215 216 208 202 198 204 218 247 276 264 249 248 273 283 286 282 293
206 209 207 204 204 205 204 202 201 200 200 201 204 204 202 201 206 208 208 209 207 209 218 222 211 181 149 114 269 271 264 259 267 258 273 292 295 296
211 213 212 208 206 206 204 202 203 204 201 203 205 204 202 203 208 207 206 206 209 212 218 206 155 152 170 205 235 252 273 287 292 293 282 261 243 258
218 216 214 210 209 207 205 206 209 211 206 204 203 203 201 204 207 207 208 208 206 206 200 189 183 193 208 216 235 252 264 280 288 292 284 282 277 276